CMP138 MPTO-MMMX

Flight info

Callsign CMP138
Flight time 3h 16m
Altitude 34000
Route SIMAN DCT AROVI DCT ANSON DCT EMARI UA317 URPOS DCT CAT DCT TECUN UA317 TAP J13 IZT UT157 LARLO LARLO3B
Aircraft B738/M-SDE2E3FGHIRWXY/LB1

Departure

Time 2026-05-05 21:43
Airport Tocumen International Airport (MPTO)

Arrival

Time 2026-05-06 00:59
Airport Mexico City Benito Juárez International Airport (MMMX)
Time Latitude Longitude Altitude Speed Heading
2026-05-05 21:18 9.06217 -79.38903 28 ft 0 kts 294°
2026-05-05 21:30 9.06212 -79.38892 29 ft 2 kts 293°
2026-05-05 21:31 9.06206 -79.38877 29 ft 2 kts 293°
2026-05-05 21:31 9.06199 -79.38861 29 ft 2 kts 290°
2026-05-05 21:31 9.06194 -79.38845 29 ft 2 kts 280°
2026-05-05 21:31 9.06197 -79.38830 29 ft 2 kts 211°
2026-05-05 21:32 9.06201 -79.38828 29 ft 0 kts 204°
2026-05-05 21:34 9.06200 -79.38828 29 ft 1 kts 205°
2026-05-05 21:34 9.06191 -79.38833 29 ft 2 kts 209°
2026-05-05 21:35 9.06165 -79.38851 29 ft 7 kts 214°
2026-05-05 21:35 9.06127 -79.38891 29 ft 9 kts 219°
2026-05-05 21:35 9.06067 -79.38907 29 ft 10 kts 164°
2026-05-05 21:35 9.06026 -79.38851 29 ft 10 kts 120°
2026-05-05 21:36 9.05990 -79.38788 29 ft 10 kts 116°
2026-05-05 21:36 9.06009 -79.38726 29 ft 10 kts 39°
2026-05-05 21:36 9.06074 -79.38691 29 ft 11 kts 29°
2026-05-05 21:36 9.06142 -79.38653 29 ft 11 kts 28°
2026-05-05 21:37 9.06209 -79.38614 29 ft 12 kts 30°
2026-05-05 21:37 9.06282 -79.38572 29 ft 13 kts 30°
2026-05-05 21:37 9.06359 -79.38526 29 ft 13 kts 30°
2026-05-05 21:37 9.06435 -79.38483 29 ft 12 kts 30°
2026-05-05 21:38 9.06508 -79.38441 29 ft 12 kts 30°
2026-05-05 21:38 9.06580 -79.38399 29 ft 12 kts 30°
2026-05-05 21:38 9.06651 -79.38361 29 ft 12 kts 26°
2026-05-05 21:38 9.06722 -79.38324 29 ft 12 kts 28°
2026-05-05 21:39 9.06792 -79.38286 29 ft 11 kts 28°
2026-05-05 21:39 9.06862 -79.38248 29 ft 12 kts 27°
2026-05-05 21:39 9.06937 -79.38208 29 ft 13 kts 28°
2026-05-05 21:39 9.07016 -79.38166 29 ft 14 kts 28°
2026-05-05 21:40 9.07104 -79.38145 29 ft 14 kts 323°
2026-05-05 21:40 9.07153 -79.38230 29 ft 14 kts 298°
2026-05-05 21:40 9.07199 -79.38314 29 ft 13 kts 299°
2026-05-05 21:40 9.07245 -79.38393 30 ft 13 kts 302°
2026-05-05 21:41 9.07292 -79.38468 30 ft 13 kts 301°
2026-05-05 21:41 9.07333 -79.38544 34 ft 12 kts 297°
2026-05-05 21:41 9.07375 -79.38618 43 ft 12 kts 300°
2026-05-05 21:41 9.07442 -79.38635 45 ft 8 kts 27°
2026-05-05 21:42 9.07454 -79.38627 48 ft 12 kts 32°
2026-05-05 21:42 9.07704 -79.38476 48 ft 73 kts 31°
2026-05-05 21:42 9.08311 -79.38112 45 ft 128 kts 30°
2026-05-05 21:42 9.09207 -79.37564 53 ft 171 kts 32°
2026-05-05 21:43 9.10235 -79.36940 579 ft 173 kts 31°
2026-05-05 21:43 9.11300 -79.36309 1104 ft 181 kts 30°
2026-05-05 21:43 9.12378 -79.35678 1756 ft 185 kts 29°
2026-05-05 21:43 9.13569 -79.34979 1998 ft 209 kts 28°
2026-05-05 21:44 9.14869 -79.34205 2175 ft 226 kts 30°
2026-05-05 21:44 9.16250 -79.33372 2438 ft 236 kts 30°
2026-05-05 21:44 9.17667 -79.32514 2892 ft 238 kts 30°
2026-05-05 21:44 9.19097 -79.31647 3366 ft 241 kts 30°
2026-05-05 21:45 9.20584 -79.30751 3552 ft 258 kts 28°
2026-05-05 21:45 9.22323 -79.30308 3915 ft 268 kts 355°
2026-05-05 21:45 9.24091 -79.30877 4570 ft 272 kts 327°
2026-05-05 21:45 9.25407 -79.32235 5219 ft 275 kts 300°
2026-05-05 21:46 9.26034 -79.34075 5830 ft 280 kts 279°
2026-05-05 21:46 9.26214 -79.36059 6369 ft 286 kts 273°
2026-05-05 21:46 9.26289 -79.38079 6948 ft 288 kts 272°
2026-05-05 21:46 9.26357 -79.40116 7523 ft 291 kts 272°
2026-05-05 21:47 9.26440 -79.42172 8100 ft 294 kts 272°
2026-05-05 21:47 9.26535 -79.44227 8679 ft 296 kts 273°
2026-05-05 21:47 9.26641 -79.46319 9241 ft 299 kts 273°
2026-05-05 21:47 9.26756 -79.48433 9807 ft 302 kts 274°
2026-05-05 21:48 9.26875 -79.50565 10294 ft 305 kts 274°
2026-05-05 21:48 9.26997 -79.52720 10815 ft 308 kts 274°
2026-05-05 21:48 9.27129 -79.54895 11328 ft 311 kts 277°
2026-05-05 21:48 9.27555 -79.57090 11567 ft 327 kts 286°
2026-05-05 21:49 9.28215 -79.59361 11689 ft 345 kts 288°
2026-05-05 21:49 9.28953 -79.61732 11878 ft 358 kts 288°
2026-05-05 21:49 9.29704 -79.64162 12333 ft 363 kts 288°
2026-05-05 21:49 9.30433 -79.66587 12851 ft 365 kts 287°
2026-05-05 21:50 9.31161 -79.69067 13372 ft 368 kts 287°
2026-05-05 21:50 9.31887 -79.71571 13809 ft 373 kts 287°
2026-05-05 21:50 9.32619 -79.74107 14250 ft 376 kts 287°
2026-05-05 21:50 9.33353 -79.76665 14749 ft 379 kts 287°
2026-05-05 21:51 9.34089 -79.79232 15214 ft 382 kts 287°
2026-05-05 21:51 9.34831 -79.81829 15703 ft 385 kts 287°
2026-05-05 21:51 9.35576 -79.84441 16171 ft 388 kts 287°
2026-05-05 21:51 9.36328 -79.87076 16625 ft 391 kts 286°
2026-05-05 21:52 9.37652 -79.92438 17528 ft 397 kts 283°
2026-05-05 21:52 9.38277 -79.95181 17983 ft 401 kts 283°
2026-05-05 21:52 9.38904 -79.97941 18378 ft 404 kts 283°
2026-05-05 21:53 9.39542 -80.00716 18791 ft 405 kts 283°
2026-05-05 21:53 9.40191 -80.03503 19228 ft 406 kts 284°
2026-05-05 21:53 9.40846 -80.06291 19643 ft 408 kts 284°
2026-05-05 21:53 9.41506 -80.09096 20039 ft 410 kts 284°
2026-05-05 21:54 9.42163 -80.11878 20428 ft 412 kts 284°
2026-05-05 21:54 9.42831 -80.14711 20805 ft 414 kts 284°
2026-05-05 21:54 9.43500 -80.17550 21209 ft 415 kts 284°
2026-05-05 21:54 9.44173 -80.20401 21593 ft 417 kts 284°
2026-05-05 21:55 9.44848 -80.23265 21972 ft 419 kts 284°
2026-05-05 21:55 9.45525 -80.26141 22339 ft 421 kts 284°
2026-05-05 21:55 9.46205 -80.29031 22700 ft 423 kts 284°
2026-05-05 21:55 9.46886 -80.31934 23058 ft 425 kts 284°
2026-05-05 21:56 9.47570 -80.34850 23406 ft 426 kts 284°
2026-05-05 21:56 9.48258 -80.37780 23694 ft 428 kts 284°
2026-05-05 21:56 9.48951 -80.40727 23976 ft 430 kts 284°
2026-05-05 21:56 9.49637 -80.43645 24266 ft 431 kts 284°
2026-05-05 21:57 9.50334 -80.46612 24556 ft 433 kts 284°
2026-05-05 21:57 9.51034 -80.49582 24837 ft 434 kts 284°
2026-05-05 21:57 9.51737 -80.52570 25116 ft 436 kts 284°
2026-05-05 21:57 9.52438 -80.55562 25394 ft 437 kts 284°
2026-05-05 21:58 9.53141 -80.58565 25658 ft 439 kts 284°
2026-05-05 21:58 9.53848 -80.61580 25922 ft 441 kts 284°
2026-05-05 21:58 9.54561 -80.64620 26189 ft 442 kts 284°
2026-05-05 21:58 9.55272 -80.67651 26442 ft 444 kts 284°
2026-05-05 21:59 9.55987 -80.70701 26696 ft 446 kts 284°
2026-05-05 21:59 9.56698 -80.73727 26947 ft 447 kts 284°
2026-05-05 21:59 9.57419 -80.76797 27209 ft 449 kts 284°
2026-05-05 21:59 9.58139 -80.79877 27459 ft 450 kts 284°
2026-05-05 22:00 9.58915 -80.82960 27685 ft 451 kts 289°
2026-05-05 22:00 9.60092 -80.85910 27901 ft 452 kts 298°
2026-05-05 22:00 9.61699 -80.88651 28131 ft 452 kts 303°
2026-05-05 22:00 9.63397 -80.91331 28385 ft 453 kts 304°
2026-05-05 22:01 9.65122 -80.94021 28607 ft 455 kts 304°
2026-05-05 22:01 9.66849 -80.96717 28817 ft 457 kts 303°
2026-05-05 22:01 9.68574 -80.99427 29035 ft 458 kts 303°
2026-05-05 22:01 9.70297 -81.02152 29250 ft 460 kts 303°
2026-05-05 22:02 9.72004 -81.04865 29458 ft 461 kts 303°
2026-05-05 22:02 9.73726 -81.07612 29696 ft 462 kts 303°
2026-05-05 22:02 9.75448 -81.10364 29926 ft 462 kts 303°
2026-05-05 22:02 9.77168 -81.13114 30204 ft 461 kts 303°
2026-05-05 22:03 9.78881 -81.15856 30488 ft 459 kts 303°
2026-05-05 22:03 9.80591 -81.18592 30780 ft 458 kts 303°
2026-05-05 22:03 9.82293 -81.21315 31025 ft 457 kts 303°
2026-05-05 22:03 9.83997 -81.24041 31273 ft 456 kts 303°
2026-05-05 22:04 9.85697 -81.26762 31539 ft 455 kts 303°
2026-05-05 22:04 9.87366 -81.29433 31820 ft 453 kts 303°
2026-05-05 22:04 9.89047 -81.32124 32151 ft 450 kts 303°
2026-05-05 22:04 9.90722 -81.34805 32399 ft 450 kts 303°
2026-05-05 22:05 9.92404 -81.37493 32581 ft 451 kts 303°
2026-05-05 22:05 9.94087 -81.40185 32802 ft 451 kts 303°
2026-05-05 22:05 9.95766 -81.42874 33068 ft 449 kts 303°
2026-05-05 22:05 9.97433 -81.45546 33357 ft 447 kts 303°
2026-05-05 22:06 9.99092 -81.48205 33592 ft 447 kts 303°
2026-05-05 22:06 10.00733 -81.50842 33800 ft 447 kts 303°
2026-05-05 22:06 10.02394 -81.53510 33889 ft 449 kts 302°
2026-05-05 22:07 10.05736 -81.58877 33890 ft 449 kts 302°
2026-05-05 22:07 10.09063 -81.64216 33890 ft 446 kts 303°
2026-05-05 22:08 10.12366 -81.69514 33902 ft 443 kts 302°
2026-05-05 22:08 10.15111 -81.73927 33889 ft 440 kts 302°
2026-05-05 22:09 10.18357 -81.79147 33889 ft 438 kts 302°
2026-05-05 22:09 10.21605 -81.84371 33894 ft 436 kts 302°
2026-05-05 22:10 10.24838 -81.89568 33896 ft 436 kts 302°
2026-05-05 22:10 10.28077 -81.94779 33900 ft 436 kts 302°
2026-05-05 22:11 10.31300 -81.99971 33900 ft 438 kts 302°
2026-05-05 22:11 10.34559 -82.05217 33901 ft 440 kts 302°
2026-05-05 22:12 10.37827 -82.10492 33903 ft 442 kts 302°
2026-05-05 22:12 10.41111 -82.15790 33902 ft 444 kts 302°
2026-05-05 22:13 10.44408 -82.21109 33898 ft 445 kts 302°
2026-05-05 22:13 10.47688 -82.26402 33906 ft 446 kts 302°
2026-05-05 22:14 10.50997 -82.31745 33899 ft 447 kts 302°
2026-05-05 22:14 10.54307 -82.37092 33889 ft 446 kts 302°
2026-05-05 22:15 10.57609 -82.42427 33894 ft 445 kts 302°
2026-05-05 22:15 10.60899 -82.47749 33898 ft 444 kts 302°
2026-05-05 22:16 10.64183 -82.53059 33896 ft 443 kts 302°
2026-05-05 22:16 10.67459 -82.58358 33899 ft 442 kts 302°
2026-05-05 22:17 10.70655 -82.63700 33893 ft 442 kts 296°
2026-05-05 22:17 10.72725 -82.69543 33898 ft 441 kts 288°
2026-05-05 22:18 10.74570 -82.75483 33904 ft 441 kts 288°
2026-05-05 22:18 10.76442 -82.81421 33898 ft 441 kts 288°
2026-05-05 22:19 10.78344 -82.87362 33897 ft 442 kts 288°
2026-05-05 22:19 10.80250 -82.93274 33902 ft 442 kts 288°
2026-05-05 22:20 10.82167 -82.99222 33897 ft 443 kts 288°
2026-05-05 22:20 10.84084 -83.05182 33902 ft 444 kts 288°
2026-05-05 22:21 10.86007 -83.11175 33900 ft 444 kts 288°
2026-05-05 22:21 10.87912 -83.17124 33904 ft 445 kts 289°
2026-05-05 22:22 10.89835 -83.23119 33890 ft 446 kts 288°
2026-05-05 22:22 10.91761 -83.29117 33902 ft 445 kts 288°
2026-05-05 22:23 10.93680 -83.35117 33903 ft 446 kts 288°
2026-05-05 22:23 10.95601 -83.41124 33903 ft 446 kts 288°
2026-05-05 22:24 10.97520 -83.47123 33903 ft 445 kts 288°
2026-05-05 22:24 10.99423 -83.53082 33899 ft 445 kts 289°
2026-05-05 22:25 11.01342 -83.59084 33902 ft 445 kts 289°
2026-05-05 22:25 11.03252 -83.65071 33894 ft 445 kts 288°
2026-05-05 22:26 11.05164 -83.71067 33910 ft 445 kts 289°
2026-05-05 22:26 11.07063 -83.77028 33899 ft 445 kts 288°
2026-05-05 22:27 11.08971 -83.83020 33908 ft 446 kts 289°
2026-05-05 22:27 11.10882 -83.89038 33899 ft 446 kts 289°
2026-05-05 22:28 11.12798 -83.95052 33896 ft 447 kts 288°
2026-05-05 22:28 11.14711 -84.01083 33902 ft 447 kts 288°
2026-05-05 22:29 11.16625 -84.07120 33899 ft 447 kts 289°
2026-05-05 22:29 11.18526 -84.13121 33901 ft 448 kts 289°
2026-05-05 22:30 11.20438 -84.19156 33889 ft 448 kts 288°
2026-05-05 22:30 11.22351 -84.25193 33895 ft 448 kts 289°
2026-05-05 22:31 11.24260 -84.31229 33896 ft 448 kts 288°
2026-05-05 22:31 11.26168 -84.37265 33883 ft 447 kts 288°
2026-05-05 22:32 11.28073 -84.43296 33879 ft 447 kts 288°
2026-05-05 22:32 11.29967 -84.49296 33878 ft 447 kts 288°
2026-05-05 22:33 11.31867 -84.55319 33873 ft 446 kts 288°
2026-05-05 22:33 11.33764 -84.61338 33876 ft 446 kts 288°
2026-05-05 22:34 11.35661 -84.67360 33865 ft 446 kts 288°
2026-05-05 22:34 11.37553 -84.73371 33872 ft 445 kts 288°
2026-05-05 22:35 11.39434 -84.79354 33876 ft 445 kts 288°
2026-05-05 22:35 11.41325 -84.85372 33863 ft 445 kts 288°
2026-05-05 22:36 11.43214 -84.91386 33872 ft 445 kts 288°
2026-05-05 22:36 11.45102 -84.97404 33865 ft 446 kts 288°
2026-05-05 22:37 11.46994 -85.03436 33877 ft 446 kts 288°
2026-05-05 22:37 11.48886 -85.09474 33870 ft 447 kts 288°
2026-05-05 22:38 11.50781 -85.15525 33863 ft 448 kts 288°
2026-05-05 22:38 11.52676 -85.21579 33864 ft 448 kts 288°
2026-05-05 22:39 11.54573 -85.27642 33859 ft 449 kts 288°
2026-05-05 22:39 11.56599 -85.33620 33847 ft 449 kts 296°
2026-05-05 22:40 11.59926 -85.38992 33869 ft 447 kts 306°
2026-05-05 22:40 11.63563 -85.44149 33858 ft 448 kts 306°
2026-05-05 22:41 11.67188 -85.49325 33856 ft 449 kts 306°
2026-05-05 22:41 11.70790 -85.54527 33860 ft 449 kts 306°
2026-05-05 22:42 11.74369 -85.59720 33857 ft 449 kts 306°
2026-05-05 22:42 11.77964 -85.64943 33859 ft 450 kts 306°
2026-05-05 22:43 11.81562 -85.70171 33856 ft 450 kts 305°
2026-05-05 22:43 11.85166 -85.75409 33855 ft 450 kts 306°
2026-05-05 22:44 11.88769 -85.80648 33852 ft 450 kts 305°
2026-05-05 22:44 11.92371 -85.85888 33848 ft 450 kts 305°
2026-05-05 22:45 11.95950 -85.91098 33844 ft 450 kts 306°
2026-05-05 22:45 11.99547 -85.96336 33844 ft 450 kts 305°
2026-05-05 22:46 12.03140 -86.01570 33838 ft 449 kts 305°
2026-05-05 22:46 12.06727 -86.06793 33829 ft 449 kts 306°
2026-05-05 22:47 12.10305 -86.12008 33830 ft 448 kts 305°
2026-05-05 22:47 12.13841 -86.17209 33832 ft 448 kts 302°
2026-05-05 22:48 12.16638 -86.22877 33831 ft 447 kts 294°
2026-05-05 22:48 12.19163 -86.28676 33836 ft 446 kts 293°
2026-05-05 22:49 12.21710 -86.34453 33835 ft 445 kts 294°
2026-05-05 22:49 12.24287 -86.40198 33836 ft 444 kts 294°
2026-05-05 22:50 12.26873 -86.45928 33838 ft 443 kts 294°
2026-05-05 22:50 12.29453 -86.51647 33839 ft 442 kts 294°
2026-05-05 22:51 12.32015 -86.57333 33834 ft 442 kts 295°
2026-05-05 22:51 12.34584 -86.63038 33841 ft 441 kts 294°
2026-05-05 22:52 12.37150 -86.68743 33852 ft 442 kts 294°
2026-05-05 22:52 12.39720 -86.74472 33862 ft 442 kts 296°
2026-05-05 22:53 12.42291 -86.80192 33853 ft 443 kts 296°
2026-05-05 22:53 12.44851 -86.85885 33854 ft 443 kts 296°
2026-05-05 22:54 12.47429 -86.91627 33855 ft 443 kts 296°
2026-05-05 22:54 12.49999 -86.97358 33864 ft 443 kts 296°
2026-05-05 22:55 12.52136 -87.02125 33855 ft 442 kts 296°
2026-05-05 22:55 12.54701 -87.07850 33855 ft 441 kts 296°
2026-05-05 22:56 12.57256 -87.13565 33856 ft 440 kts 296°
2026-05-05 22:56 12.59782 -87.19225 33857 ft 439 kts 296°
2026-05-05 22:57 12.62322 -87.24917 33859 ft 438 kts 296°
2026-05-05 22:57 12.64859 -87.30604 33856 ft 438 kts 296°
2026-05-05 22:58 12.67386 -87.36270 33851 ft 437 kts 296°
2026-05-05 22:58 12.69909 -87.41932 33853 ft 437 kts 296°
2026-05-05 22:59 12.72431 -87.47595 33854 ft 437 kts 296°
2026-05-05 22:59 12.74953 -87.53262 33852 ft 437 kts 296°
2026-05-05 23:00 12.78726 -87.61746 33854 ft 438 kts 296°
2026-05-05 23:00 12.81254 -87.67436 33857 ft 439 kts 296°
2026-05-05 23:01 12.83786 -87.73140 33856 ft 440 kts 296°
2026-05-05 23:01 12.86328 -87.78870 33853 ft 441 kts 296°
2026-05-05 23:02 12.88868 -87.84598 33852 ft 442 kts 296°
2026-05-05 23:02 12.91409 -87.90334 33855 ft 442 kts 296°
2026-05-05 23:03 12.93936 -87.96042 33854 ft 442 kts 296°
2026-05-05 23:03 12.96474 -88.01778 33858 ft 442 kts 296°
2026-05-05 23:04 12.99016 -88.07526 33856 ft 442 kts 296°
2026-05-05 23:04 13.01552 -88.13268 33864 ft 441 kts 296°
2026-05-05 23:05 13.04081 -88.18995 33854 ft 440 kts 296°
2026-05-05 23:05 13.06602 -88.24709 33828 ft 439 kts 296°
2026-05-05 23:06 13.09117 -88.30415 33835 ft 438 kts 296°
2026-05-05 23:06 13.11625 -88.36107 33832 ft 437 kts 296°
2026-05-05 23:07 13.14124 -88.41782 33838 ft 436 kts 296°
2026-05-05 23:07 13.16603 -88.47417 33831 ft 435 kts 296°
2026-05-05 23:08 13.19094 -88.53082 33837 ft 435 kts 296°
2026-05-05 23:08 13.21587 -88.58754 33827 ft 436 kts 296°
2026-05-05 23:09 13.24082 -88.64437 33844 ft 436 kts 296°
2026-05-05 23:09 13.26561 -88.70094 33846 ft 437 kts 296°
2026-05-05 23:10 13.29064 -88.75809 33846 ft 438 kts 296°
2026-05-05 23:10 13.31568 -88.81523 33857 ft 439 kts 296°
2026-05-05 23:11 13.34080 -88.87257 33849 ft 440 kts 296°
2026-05-05 23:11 13.36594 -88.93000 33862 ft 441 kts 296°
2026-05-05 23:12 13.39105 -88.98742 33857 ft 441 kts 296°
2026-05-05 23:12 13.41621 -89.04495 33857 ft 441 kts 296°
2026-05-05 23:13 13.44113 -89.10251 33929 ft 441 kts 295°
2026-05-05 23:13 13.46495 -89.16064 33936 ft 441 kts 294°
2026-05-05 23:14 13.48831 -89.21839 33941 ft 440 kts 294°
2026-05-05 23:14 13.51196 -89.27654 33960 ft 440 kts 294°
2026-05-05 23:15 13.53562 -89.33449 33959 ft 439 kts 294°
2026-05-05 23:15 13.55926 -89.39233 33956 ft 439 kts 294°
2026-05-05 23:16 13.58271 -89.44977 33955 ft 439 kts 295°
2026-05-05 23:16 13.60631 -89.50758 33957 ft 439 kts 295°
2026-05-05 23:17 13.62989 -89.56541 33961 ft 438 kts 295°
2026-05-05 23:17 13.65346 -89.62329 33993 ft 438 kts 295°
2026-05-05 23:18 13.67706 -89.68126 33985 ft 439 kts 294°
2026-05-05 23:18 13.70056 -89.73904 33993 ft 438 kts 294°
2026-05-05 23:19 13.72411 -89.79699 33993 ft 438 kts 294°
2026-05-05 23:19 13.74747 -89.85450 33994 ft 438 kts 294°
2026-05-05 23:20 13.77094 -89.91235 34001 ft 438 kts 294°
2026-05-05 23:20 13.79442 -89.97022 34020 ft 438 kts 294°
2026-05-05 23:21 13.81788 -90.02813 34024 ft 438 kts 294°
2026-05-05 23:21 13.84133 -90.08607 34023 ft 439 kts 294°
2026-05-05 23:22 13.86483 -90.14412 34016 ft 439 kts 294°
2026-05-05 23:22 13.88837 -90.20224 34025 ft 440 kts 294°
2026-05-05 23:23 13.91186 -90.26048 34022 ft 440 kts 294°
2026-05-05 23:23 13.93520 -90.31838 34054 ft 441 kts 294°
2026-05-05 23:24 13.95877 -90.37682 34055 ft 442 kts 294°
2026-05-05 23:24 13.98232 -90.43527 34056 ft 442 kts 294°
2026-05-05 23:25 14.00589 -90.49380 34047 ft 443 kts 294°
2026-05-05 23:25 14.02948 -90.55244 34047 ft 443 kts 294°
2026-05-05 23:26 14.05304 -90.61104 34045 ft 443 kts 294°
2026-05-05 23:26 14.07660 -90.66970 34090 ft 442 kts 294°
2026-05-05 23:27 14.09997 -90.72795 34085 ft 442 kts 294°
2026-05-05 23:27 14.12344 -90.78647 34050 ft 442 kts 293°
2026-05-05 23:28 14.14691 -90.84504 34048 ft 441 kts 293°
2026-05-05 23:28 14.17032 -90.90351 34054 ft 441 kts 293°
2026-05-05 23:29 14.19374 -90.96205 34002 ft 441 kts 293°
2026-05-05 23:29 14.21712 -91.02054 34043 ft 441 kts 294°
2026-05-05 23:30 14.23652 -91.06912 34048 ft 441 kts 295°
2026-05-05 23:30 14.26362 -91.13701 34015 ft 441 kts 294°
2026-05-05 23:31 14.28702 -91.19560 34010 ft 442 kts 293°
2026-05-05 23:31 14.31037 -91.25426 33962 ft 442 kts 293°
2026-05-05 23:32 14.33374 -91.31301 33962 ft 443 kts 293°
2026-05-05 23:32 14.35715 -91.37186 34010 ft 444 kts 293°
2026-05-05 23:33 14.38059 -91.43084 33950 ft 444 kts 293°
2026-05-05 23:33 14.40399 -91.48975 33930 ft 444 kts 293°
2026-05-05 23:34 14.42727 -91.54843 33896 ft 444 kts 292°
2026-05-05 23:34 14.45069 -91.60750 33886 ft 444 kts 292°
2026-05-05 23:35 14.47407 -91.66653 33885 ft 444 kts 292°
2026-05-05 23:35 14.49739 -91.72543 33884 ft 443 kts 292°
2026-05-05 23:36 14.52066 -91.78427 33885 ft 442 kts 292°
2026-05-05 23:36 14.54000 -91.83320 33887 ft 442 kts 292°
2026-05-05 23:37 14.56696 -91.90146 33906 ft 441 kts 292°
2026-05-05 23:37 14.59012 -91.96016 33906 ft 441 kts 293°
2026-05-05 23:38 14.61322 -92.01874 33890 ft 440 kts 293°
2026-05-05 23:38 14.63632 -92.07731 33893 ft 440 kts 292°
2026-05-05 23:39 14.65554 -92.12615 33918 ft 440 kts 292°
2026-05-05 23:39 14.68255 -92.18274 33914 ft 439 kts 301°
2026-05-05 23:40 14.71365 -92.23675 33905 ft 439 kts 301°
2026-05-05 23:40 14.74464 -92.29123 33891 ft 440 kts 301°
2026-05-05 23:41 14.77529 -92.34609 33889 ft 441 kts 301°
2026-05-05 23:41 14.80635 -92.40069 33886 ft 441 kts 303°
2026-05-05 23:42 14.83979 -92.45381 33893 ft 441 kts 304°
2026-05-05 23:42 14.87354 -92.50686 33886 ft 441 kts 304°
2026-05-05 23:43 14.90699 -92.56010 33886 ft 442 kts 303°
2026-05-05 23:43 14.94032 -92.61349 33873 ft 442 kts 304°
2026-05-05 23:44 14.97346 -92.66663 33873 ft 442 kts 303°
2026-05-05 23:44 15.00694 -92.72032 33867 ft 443 kts 303°
2026-05-05 23:45 15.04028 -92.77389 33864 ft 443 kts 303°
2026-05-05 23:45 15.07338 -92.82713 33864 ft 443 kts 303°
2026-05-05 23:46 15.10671 -92.88075 33868 ft 442 kts 303°
2026-05-05 23:46 15.13999 -92.93429 33853 ft 442 kts 303°
2026-05-05 23:47 15.17328 -92.98787 33856 ft 442 kts 303°
2026-05-05 23:47 15.20653 -93.04143 33860 ft 441 kts 303°
2026-05-05 23:48 15.23968 -93.09486 33851 ft 441 kts 303°
2026-05-05 23:48 15.27266 -93.14805 33856 ft 441 kts 303°
2026-05-05 23:49 15.30580 -93.20155 33856 ft 441 kts 303°
2026-05-05 23:49 15.33894 -93.25509 33854 ft 441 kts 303°
2026-05-05 23:50 15.37210 -93.30866 33854 ft 442 kts 303°
2026-05-05 23:50 15.40528 -93.36234 33855 ft 442 kts 303°
2026-05-05 23:51 15.43840 -93.41595 33856 ft 442 kts 303°
2026-05-05 23:51 15.47162 -93.46976 33855 ft 442 kts 303°
2026-05-05 23:52 15.50484 -93.52360 33852 ft 443 kts 303°
2026-05-05 23:52 15.53787 -93.57718 33852 ft 443 kts 303°
2026-05-05 23:53 15.57106 -93.63105 33854 ft 443 kts 303°
2026-05-05 23:53 15.60425 -93.68496 33850 ft 443 kts 303°
2026-05-05 23:54 15.63747 -93.73895 33851 ft 443 kts 303°
2026-05-05 23:54 15.67043 -93.79254 33856 ft 443 kts 303°
2026-05-05 23:55 15.70360 -93.84654 33854 ft 444 kts 302°
2026-05-05 23:55 15.73682 -93.90061 33851 ft 444 kts 302°
2026-05-05 23:56 15.76999 -93.95464 33855 ft 444 kts 302°
2026-05-05 23:56 15.80311 -94.00869 33849 ft 443 kts 302°
2026-05-05 23:57 15.83621 -94.06281 33847 ft 443 kts 302°
2026-05-05 23:57 15.86923 -94.11679 33848 ft 443 kts 302°
2026-05-05 23:58 15.90225 -94.17080 33849 ft 443 kts 303°
2026-05-05 23:58 15.93526 -94.22479 33854 ft 442 kts 302°
2026-05-05 23:59 15.96824 -94.27878 33840 ft 442 kts 302°
2026-05-05 23:59 16.00119 -94.33275 33845 ft 442 kts 302°
2026-05-06 00:00 16.03411 -94.38672 33851 ft 442 kts 302°
2026-05-06 00:00 16.06677 -94.44031 33847 ft 442 kts 302°
2026-05-06 00:01 16.09972 -94.49439 33847 ft 442 kts 302°
2026-05-06 00:01 16.13257 -94.54838 33848 ft 442 kts 302°
2026-05-06 00:02 16.16546 -94.60245 33845 ft 442 kts 302°
2026-05-06 00:02 16.19830 -94.65648 33848 ft 442 kts 302°
2026-05-06 00:03 16.23113 -94.71055 33848 ft 442 kts 302°
2026-05-06 00:03 16.26397 -94.76466 33844 ft 442 kts 302°
2026-05-06 00:04 16.29685 -94.81888 33848 ft 442 kts 302°
2026-05-06 00:04 16.32968 -94.87305 33842 ft 443 kts 302°
2026-05-06 00:05 16.37896 -94.95445 33840 ft 443 kts 301°
2026-05-06 00:06 16.41161 -95.00840 33846 ft 443 kts 301°
2026-05-06 00:06 16.44451 -95.06281 33843 ft 443 kts 301°
2026-05-06 00:07 16.47710 -95.11742 33844 ft 443 kts 300°
2026-05-06 00:07 16.50759 -95.17320 33844 ft 443 kts 298°
2026-05-06 00:08 16.53771 -95.22926 33849 ft 443 kts 298°
2026-05-06 00:08 16.56802 -95.28507 33849 ft 442 kts 299°
2026-05-06 00:09 16.59830 -95.34047 33862 ft 442 kts 299°
2026-05-06 00:09 16.62872 -95.39610 33860 ft 441 kts 299°
2026-05-06 00:10 16.65909 -95.45169 33857 ft 441 kts 298°
2026-05-06 00:10 16.68942 -95.50724 33868 ft 440 kts 298°
2026-05-06 00:11 16.71968 -95.56273 33861 ft 440 kts 298°
2026-05-06 00:11 16.74996 -95.61829 33864 ft 439 kts 298°
2026-05-06 00:12 16.78009 -95.67360 33873 ft 439 kts 298°
2026-05-06 00:12 16.81028 -95.72905 33872 ft 438 kts 298°
2026-05-06 00:13 16.84015 -95.78399 33872 ft 438 kts 298°
2026-05-06 00:13 16.87014 -95.83935 33884 ft 438 kts 298°
2026-05-06 00:14 16.90010 -95.89473 33890 ft 438 kts 298°
2026-05-06 00:14 16.93008 -95.95015 33907 ft 438 kts 298°
2026-05-06 00:15 16.96005 -96.00553 33902 ft 438 kts 298°
2026-05-06 00:15 16.99002 -96.06098 33908 ft 438 kts 298°
2026-05-06 00:16 17.02002 -96.11653 33937 ft 439 kts 298°
2026-05-06 00:16 17.05002 -96.17210 33938 ft 439 kts 297°
2026-05-06 00:17 17.08001 -96.22772 33941 ft 440 kts 297°
2026-05-06 00:17 17.10988 -96.28314 33947 ft 440 kts 298°
2026-05-06 00:18 17.13993 -96.33892 33948 ft 440 kts 298°
2026-05-06 00:18 17.16996 -96.39477 33947 ft 440 kts 297°
2026-05-06 00:19 17.19992 -96.45057 33947 ft 440 kts 297°
2026-05-06 00:19 17.22992 -96.50642 33948 ft 440 kts 297°
2026-05-06 00:20 17.25974 -96.56197 33941 ft 441 kts 298°
2026-05-06 00:20 17.28976 -96.61795 33963 ft 441 kts 297°
2026-05-06 00:21 17.31982 -96.67391 33946 ft 441 kts 297°
2026-05-06 00:21 17.34988 -96.72998 33922 ft 441 kts 297°
2026-05-06 00:22 17.37988 -96.78608 33921 ft 441 kts 297°
2026-05-06 00:22 17.40987 -96.84218 33919 ft 442 kts 298°
2026-05-06 00:23 17.43972 -96.89807 33897 ft 442 kts 297°
2026-05-06 00:23 17.46973 -96.95432 33910 ft 443 kts 297°
2026-05-06 00:24 17.49983 -97.01075 33906 ft 444 kts 296°
2026-05-06 00:24 17.52991 -97.06723 33911 ft 444 kts 297°
2026-05-06 00:25 17.55497 -97.11421 33904 ft 444 kts 296°
2026-05-06 00:25 17.58511 -97.17084 33923 ft 444 kts 297°
2026-05-06 00:26 17.62300 -97.22209 33914 ft 447 kts 314°
2026-05-06 00:26 17.66813 -97.26702 33908 ft 447 kts 314°
2026-05-06 00:27 17.71297 -97.31142 33916 ft 446 kts 315°
2026-05-06 00:27 17.75778 -97.35632 33897 ft 445 kts 315°
2026-05-06 00:28 17.80247 -97.40139 33890 ft 444 kts 314°
2026-05-06 00:28 17.84697 -97.44630 33902 ft 443 kts 314°
2026-05-06 00:29 17.89137 -97.49123 33871 ft 442 kts 314°
2026-05-06 00:29 17.93534 -97.53582 33877 ft 442 kts 314°
2026-05-06 00:30 17.97969 -97.58073 33874 ft 442 kts 314°
2026-05-06 00:30 18.02396 -97.62559 33865 ft 443 kts 313°
2026-05-06 00:31 18.06830 -97.67061 33871 ft 444 kts 315°
2026-05-06 00:31 18.11252 -97.71549 33867 ft 445 kts 314°
2026-05-06 00:32 18.15714 -97.76079 33848 ft 446 kts 315°
2026-05-06 00:32 18.17947 -97.78348 33647 ft 444 kts 314°
2026-05-06 00:32 18.20155 -97.80593 33364 ft 437 kts 314°
2026-05-06 00:32 18.22329 -97.82804 33099 ft 432 kts 314°
2026-05-06 00:33 18.24476 -97.84989 32849 ft 427 kts 314°
2026-05-06 00:33 18.26597 -97.87147 32602 ft 422 kts 314°
2026-05-06 00:33 18.28695 -97.89283 32369 ft 417 kts 314°
2026-05-06 00:33 18.30773 -97.91398 32082 ft 414 kts 314°
2026-05-06 00:34 18.32821 -97.93483 31848 ft 415 kts 314°
2026-05-06 00:34 18.34912 -97.95615 31623 ft 419 kts 314°
2026-05-06 00:34 18.37005 -97.97751 31394 ft 420 kts 314°
2026-05-06 00:34 18.39095 -97.99885 31148 ft 417 kts 314°
2026-05-06 00:35 18.41176 -98.02007 30924 ft 414 kts 315°
2026-05-06 00:35 18.43241 -98.04109 30692 ft 412 kts 315°
2026-05-06 00:35 18.45296 -98.06204 30421 ft 409 kts 314°
2026-05-06 00:35 18.47334 -98.08285 30189 ft 407 kts 315°
2026-05-06 00:36 18.49351 -98.10346 29946 ft 402 kts 315°
2026-05-06 00:36 18.51355 -98.12393 29570 ft 399 kts 315°
2026-05-06 00:36 18.53344 -98.14424 29196 ft 397 kts 315°
2026-05-06 00:36 18.55322 -98.16446 28846 ft 394 kts 315°
2026-05-06 00:37 18.57257 -98.18424 28491 ft 391 kts 315°
2026-05-06 00:37 18.59205 -98.20415 28104 ft 389 kts 315°
2026-05-06 00:37 18.61144 -98.22398 27751 ft 386 kts 315°
2026-05-06 00:37 18.63068 -98.24366 27402 ft 384 kts 315°
2026-05-06 00:38 18.64984 -98.26326 27045 ft 382 kts 315°
2026-05-06 00:38 18.66887 -98.28273 26727 ft 380 kts 315°
2026-05-06 00:38 18.68784 -98.30216 26378 ft 379 kts 315°
2026-05-06 00:38 18.70635 -98.32173 26023 ft 377 kts 308°
2026-05-06 00:39 18.71920 -98.34542 25849 ft 367 kts 287°
2026-05-06 00:39 18.72541 -98.37072 25804 ft 355 kts 280°
2026-05-06 00:39 18.72997 -98.39592 25802 ft 344 kts 278°
2026-05-06 00:39 18.73407 -98.42036 25786 ft 331 kts 278°
2026-05-06 00:40 18.73801 -98.44380 25786 ft 318 kts 278°
2026-05-06 00:40 18.74195 -98.46676 25349 ft 322 kts 279°
2026-05-06 00:40 18.74615 -98.49086 24307 ft 348 kts 279°
2026-05-06 00:40 18.75076 -98.51686 23340 ft 367 kts 279°
2026-05-06 00:41 18.75553 -98.54338 22658 ft 368 kts 280°
2026-05-06 00:41 18.76032 -98.56976 22208 ft 363 kts 280°
2026-05-06 00:41 18.76505 -98.59575 21720 ft 359 kts 280°
2026-05-06 00:41 18.76975 -98.62153 21227 ft 357 kts 280°
2026-05-06 00:42 18.77442 -98.64722 20776 ft 354 kts 280°
2026-05-06 00:42 18.77900 -98.67242 20323 ft 355 kts 280°
2026-05-06 00:42 18.78365 -98.69800 20055 ft 354 kts 280°
2026-05-06 00:42 18.78828 -98.72346 19790 ft 351 kts 280°
2026-05-06 00:43 18.79289 -98.74882 19415 ft 353 kts 280°
2026-05-06 00:43 18.79749 -98.77423 19078 ft 352 kts 280°
2026-05-06 00:43 18.80207 -98.79958 18753 ft 351 kts 280°
2026-05-06 00:43 18.80676 -98.82479 18465 ft 350 kts 281°
2026-05-06 00:44 18.81198 -98.84984 18173 ft 349 kts 282°
2026-05-06 00:44 18.81736 -98.87473 17865 ft 347 kts 282°
2026-05-06 00:44 18.82272 -98.89948 17556 ft 345 kts 282°
2026-05-06 00:44 18.82803 -98.92419 17257 ft 343 kts 282°
2026-05-06 00:45 18.83325 -98.94869 16971 ft 341 kts 282°
2026-05-06 00:45 18.83838 -98.97291 16814 ft 334 kts 282°
2026-05-06 00:45 18.84337 -98.99655 16710 ft 326 kts 282°
2026-05-06 00:45 18.84780 -99.01969 16662 ft 318 kts 280°
2026-05-06 00:46 18.85165 -99.04225 16675 ft 315 kts 279°
2026-05-06 00:46 18.85551 -99.06511 16700 ft 318 kts 279°
2026-05-06 00:46 18.85949 -99.08826 16723 ft 322 kts 279°
2026-05-06 00:46 18.86355 -99.11167 16723 ft 326 kts 280°
2026-05-06 00:47 18.86765 -99.13519 16737 ft 326 kts 280°
2026-05-06 00:47 18.87485 -99.15768 16723 ft 324 kts 303°
2026-05-06 00:47 18.88781 -99.17692 16766 ft 322 kts 308°
2026-05-06 00:47 18.90128 -99.19588 16773 ft 321 kts 307°
2026-05-06 00:48 18.91461 -99.21480 16750 ft 321 kts 307°
2026-05-06 00:48 18.92939 -99.23216 16725 ft 316 kts 326°
2026-05-06 00:48 18.94902 -99.24174 16755 ft 307 kts 351°
2026-05-06 00:48 18.96999 -99.24231 16732 ft 300 kts 13°
2026-05-06 00:49 18.98932 -99.23513 16401 ft 302 kts 33°
2026-05-06 00:49 19.00552 -99.22129 16195 ft 298 kts 47°
2026-05-06 00:49 19.01961 -99.20510 15925 ft 300 kts 50°
2026-05-06 00:49 19.03315 -99.18834 15788 ft 299 kts 51°
2026-05-06 00:50 19.04660 -99.17159 15581 ft 297 kts 50°
2026-05-06 00:50 19.05995 -99.15511 15372 ft 293 kts 50°
2026-05-06 00:50 19.07320 -99.13886 15162 ft 289 kts 50°
2026-05-06 00:50 19.08636 -99.12283 14990 ft 287 kts 50°
2026-05-06 00:51 19.09940 -99.10696 14805 ft 285 kts 50°
2026-05-06 00:51 19.11245 -99.09115 14638 ft 285 kts 50°
2026-05-06 00:51 19.12538 -99.07551 14464 ft 285 kts 50°
2026-05-06 00:51 19.13835 -99.05983 14281 ft 281 kts 49°
2026-05-06 00:52 19.15118 -99.04442 14109 ft 277 kts 47°
2026-05-06 00:52 19.16689 -99.03314 13909 ft 273 kts 18°
2026-05-06 00:52 19.18555 -99.03116 13712 ft 271 kts 350°
2026-05-06 00:52 19.20318 -99.03788 13412 ft 271 kts 327°
2026-05-06 00:53 19.21750 -99.05036 13127 ft 270 kts 316°
2026-05-06 00:53 19.23128 -99.06430 12822 ft 271 kts 316°
2026-05-06 00:53 19.24459 -99.07810 12503 ft 273 kts 312°
2026-05-06 00:53 19.25638 -99.09371 12220 ft 270 kts 306°
2026-05-06 00:54 19.26733 -99.10960 11881 ft 263 kts 306°
2026-05-06 00:54 19.27795 -99.12486 11584 ft 253 kts 306°
2026-05-06 00:54 19.28833 -99.13951 11273 ft 245 kts 307°
2026-05-06 00:54 19.29848 -99.15369 11021 ft 238 kts 307°
2026-05-06 00:55 19.30840 -99.16747 10709 ft 233 kts 307°
2026-05-06 00:55 19.31820 -99.18086 10443 ft 227 kts 310°
2026-05-06 00:55 19.33012 -99.19129 10153 ft 220 kts 336°
2026-05-06 00:55 19.34455 -99.19482 9899 ft 209 kts
2026-05-06 00:56 19.35848 -99.19173 9676 ft 203 kts 25°
2026-05-06 00:56 19.37014 -99.18378 9456 ft 198 kts 50°
2026-05-06 00:56 19.37832 -99.17226 9272 ft 196 kts 56°
2026-05-06 00:56 19.38540 -99.16034 9113 ft 189 kts 57°
2026-05-06 00:57 19.39206 -99.14842 8990 ft 181 kts 57°
2026-05-06 00:57 19.39837 -99.13710 8724 ft 171 kts 55°
2026-05-06 00:57 19.40418 -99.12667 8453 ft 167 kts 56°
2026-05-06 00:57 19.41000 -99.11630 8144 ft 162 kts 58°
2026-05-06 00:58 19.41569 -99.10615 7866 ft 157 kts 59°
2026-05-06 00:58 19.42122 -99.09621 7628 ft 157 kts 59°
2026-05-06 00:58 19.42677 -99.08629 7389 ft 156 kts 61°
2026-05-06 00:58 19.43221 -99.07655 7304 ft 149 kts 60°
2026-05-06 00:59 19.43664 -99.06867 7301 ft 83 kts 59°
2026-05-06 00:59 19.43825 -99.06583 7301 ft 13 kts 56°
2026-05-06 00:59 19.43881 -99.06529 7302 ft 12 kts 37°
2026-05-06 00:59 19.43957 -99.06524 7302 ft 12 kts 311°
2026-05-06 01:00 19.43963 -99.06612 7302 ft 12 kts 269°
2026-05-06 01:00 19.43963 -99.06697 7302 ft 12 kts 268°
2026-05-06 01:00 19.43964 -99.06781 7302 ft 11 kts 285°
2026-05-06 01:00 19.44020 -99.06834 7303 ft 11 kts 328°
2026-05-06 01:01 19.44041 -99.06848 7302 ft 0 kts 328°
2026-05-06 01:01 19.44043 -99.06850 7290 ft 1 kts 328°
2026-05-06 01:01 19.44052 -99.06855 7316 ft 1 kts 328°
2026-05-06 01:01 19.44060 -99.06861 7324 ft 1 kts 328°
2026-05-06 01:02 19.44071 -99.06868 7302 ft 4 kts 328°
2026-05-06 01:02 19.44091 -99.06911 7302 ft 10 kts 259°
2026-05-06 01:02 19.44049 -99.06988 7302 ft 15 kts 239°
2026-05-06 01:02 19.43993 -99.07085 7302 ft 15 kts 238°
2026-05-06 01:03 19.43940 -99.07179 7302 ft 15 kts 239°
2026-05-06 01:03 19.43889 -99.07269 7302 ft 14 kts 240°
2026-05-06 01:03 19.43842 -99.07356 7302 ft 13 kts 239°
2026-05-06 01:03 19.43795 -99.07438 7302 ft 13 kts 239°
2026-05-06 01:04 19.43750 -99.07518 7302 ft 13 kts 240°
2026-05-06 01:04 19.43706 -99.07597 7302 ft 12 kts 239°
2026-05-06 01:04 19.43663 -99.07673 7302 ft 12 kts 239°
2026-05-06 01:04 19.43621 -99.07747 7302 ft 12 kts 240°
2026-05-06 01:05 19.43581 -99.07820 7302 ft 11 kts 238°
2026-05-06 01:05 19.43541 -99.07889 7302 ft 11 kts 239°
2026-05-06 01:05 19.43503 -99.07957 7302 ft 11 kts 239°
2026-05-06 01:05 19.43466 -99.08024 7302 ft 10 kts 239°
2026-05-06 01:06 19.43430 -99.08088 7302 ft 10 kts 240°
2026-05-06 01:06 19.43395 -99.08151 7302 ft 10 kts 239°
2026-05-06 01:06 19.43361 -99.08212 7302 ft 10 kts 239°
2026-05-06 01:06 19.43327 -99.08272 7302 ft 9 kts 244°
2026-05-06 01:07 19.43355 -99.08325 7302 ft 10 kts 334°
2026-05-06 01:07 19.43373 -99.08335 7302 ft 1 kts 328°
2026-05-06 01:07 19.43387 -99.08345 7302 ft 1 kts 326°
2026-05-06 01:07 19.43388 -99.08346 7302 ft 0 kts 326°